�v������,,���ԉ��x,�����t���O,���Ԏ��x,�����t���O,��Q�����x,�����t���O,1F���ʏ����x,�����t���O,����,�����t���O,2F���ʉ��x,�����t���O,2F���ʎ��x,�����t���O
2004/2/1,0:00:00,24.2,0 ,36.2,0 ,20,0 ,21.5,0 ,10,0 ,26.3,0 ,42.9,0 
2004/2/1,0:10:00,24.4,0 ,36.2,0 ,20,0 ,21.5,0 ,10.1,0 ,26.7,0 ,58.8,0 
2004/2/1,0:20:00,24.4,0 ,37.3,0 ,20,0 ,21.5,0 ,10.2,0 ,26.6,0 ,41.4,0 
2004/2/1,0:30:00,24.4,0 ,38,0 ,20,0 ,21.4,0 ,10.3,0 ,26.5,0 ,38.6,0 
2004/2/1,0:40:00,24.3,0 ,38.1,0 ,20,0 ,22.1,0 ,10.4,0 ,26.9,0 ,44.4,0 
2004/2/1,0:50:00,24.2,0 ,38,0 ,20,0 ,22.6,0 ,10.5,0 ,27.1,0 ,44.8,0 
2004/2/1,1:00:00,24,0 ,37.9,0 ,20,0 ,22.4,0 ,10.6,0 ,27.3,0 ,42.2,0 
2004/2/1,1:10:00,23.9,0 ,38,0 ,20.1,0 ,22.2,0 ,10.7,0 ,27.4,0 ,40.2,0 
2004/2/1,1:20:00,23.8,0 ,37.8,0 ,20.2,0 ,22.1,0 ,10.8,0 ,27.5,0 ,39.2,0 
2004/2/1,1:30:00,23.7,0 ,37.9,0 ,20.3,0 ,22,0 ,9.3,0 ,27.7,0 ,38.4,0 
2004/2/1,1:40:00,23.6,0 ,37.8,0 ,20.4,0 ,22.1,0 ,9.5,0 ,27.8,0 ,37.7,0 
2004/2/1,1:50:00,23.5,0 ,37.7,0 ,20.4,0 ,22,0 ,9.5,0 ,27.9,0 ,37,0 
2004/2/1,2:00:00,23.5,0 ,37.8,0 ,20.4,0 ,21.9,0 ,9.6,0 ,28.1,0 ,36.4,0 
2004/2/1,2:10:00,23.4,0 ,37.8,0 ,20.5,0 ,21.9,0 ,9.6,0 ,28.3,0 ,35.7,0 
2004/2/1,2:20:00,23.3,0 ,37.8,0 ,20.5,0 ,21.9,0 ,9.7,0 ,28.4,0 ,35,0 
2004/2/1,2:30:00,23.2,0 ,37.8,0 ,20.6,0 ,21.9,0 ,9.8,0 ,28.6,0 ,34.5,0 
2004/2/1,2:40:00,23.2,0 ,37.8,0 ,20.6,0 ,21.9,0 ,9.9,0 ,28.7,0 ,34,0 
2004/2/1,2:50:00,23.2,0 ,37.8,0 ,20.6,0 ,21.9,0 ,10,0 ,28.9,0 ,33.4,0 
2004/2/1,3:00:00,23.1,0 ,37.8,0 ,20.7,0 ,21.9,0 ,10.1,0 ,29.1,0 ,32.9,0 
2004/2/1,3:10:00,23.1,0 ,37.9,0 ,20.8,0 ,21.9,0 ,10.1,0 ,29.2,0 ,32.4,0 
2004/2/1,3:20:00,23,0 ,37.8,0 ,20.8,0 ,22,0 ,10.2,0 ,29.4,0 ,31.9,0 
2004/2/1,3:30:00,23,0 ,37.8,0 ,20.9,0 ,22,0 ,10.3,0 ,29.5,0 ,31.4,0 
2004/2/1,3:40:00,23,0 ,37.8,0 ,20.9,0 ,22,0 ,10.4,0 ,29.7,0 ,30.9,0 
2004/2/1,3:50:00,23,0 ,37.9,0 ,21,0 ,22.1,0 ,10.5,0 ,29.9,0 ,30.5,0 
2004/2/1,4:00:00,23,0 ,37.9,0 ,21,0 ,22.1,0 ,10.6,0 ,30,0 ,30.1,0 
2004/2/1,4:10:00,23,0 ,37.9,0 ,21,0 ,22.2,0 ,10.7,0 ,30.3,0 ,29.7,0 
2004/2/1,4:20:00,23,0 ,37.9,0 ,21,0 ,22.2,0 ,10.8,0 ,30.5,0 ,29.4,0 
2004/2/1,4:30:00,23,0 ,37.9,0 ,21.1,0 ,22.3,0 ,10.8,0 ,30.7,0 ,29.1,0 
2004/2/1,4:40:00,23,0 ,38,0 ,21.1,0 ,22.3,0 ,10.9,0 ,30.9,0 ,28.6,0 
2004/2/1,4:50:00,23,0 ,38,0 ,21.2,0 ,22.4,0 ,11,0 ,31.1,0 ,28.4,0 
2004/2/1,5:00:00,23.1,0 ,38,0 ,21.2,0 ,22.5,0 ,11.1,0 ,31.3,0 ,28.1,0 
2004/2/1,5:10:00,23.1,0 ,38,0 ,21.2,0 ,22.5,0 ,11.2,0 ,31.5,0 ,27.9,0 
2004/2/1,5:20:00,23.2,0 ,37.9,0 ,21.3,0 ,22.6,0 ,11.3,0 ,31.6,0 ,27.6,0 
2004/2/1,5:30:00,23.2,0 ,37.9,0 ,21.3,0 ,22.6,0 ,11.3,0 ,31.8,0 ,27.4,0 
2004/2/1,5:40:00,23.2,0 ,37.9,0 ,21.3,0 ,22.7,0 ,11.4,0 ,32.1,0 ,27.1,0 
2004/2/1,5:50:00,23.2,0 ,37.9,0 ,21.3,0 ,22.7,0 ,11.5,0 ,32.2,0 ,26.9,0 
2004/2/1,6:00:00,23.3,0 ,37.9,0 ,21.4,0 ,22.8,0 ,11.6,0 ,32.3,0 ,26.6,0 
2004/2/1,6:10:00,23.3,0 ,37.8,0 ,21.4,0 ,22.8,0 ,11.6,0 ,32.5,0 ,26.6,0 
2004/2/1,6:20:00,23.4,0 ,37.8,0 ,21.4,0 ,22.8,0 ,11.7,0 ,32.5,0 ,26.3,0 
2004/2/1,6:30:00,23.4,0 ,37.8,0 ,21.4,0 ,22.9,0 ,11.8,0 ,32.6,0 ,26.2,0 
2004/2/1,6:40:00,23.4,0 ,37.7,0 ,21.4,0 ,22.9,0 ,10.4,0 ,32.4,0 ,26,0 
2004/2/1,6:50:00,23.5,0 ,37.9,0 ,21.6,0 ,22.9,0 ,6.7,0 ,31,0 ,26.6,0 
2004/2/1,7:00:00,23.6,0 ,38,0 ,21.8,0 ,22.9,0 ,6.8,0 ,30.6,0 ,27.2,0 
2004/2/1,7:10:00,23.6,0 ,38,0 ,21.9,0 ,23,0 ,6.9,0 ,31.2,0 ,27.2,0 
2004/2/1,7:20:00,23.6,0 ,37.9,0 ,21.9,0 ,23,0 ,7,0 ,31.6,0 ,26.9,0 
2004/2/1,7:30:00,23.7,0 ,38,0 ,22,0 ,23,0 ,7.1,0 ,30.8,0 ,26.7,0 
2004/2/1,7:40:00,23.8,0 ,38,0 ,22,0 ,23,0 ,7.2,0 ,30.3,0 ,27.3,0 
2004/2/1,7:50:00,23.8,0 ,38,0 ,22.1,0 ,23,0 ,7.3,0 ,30,0 ,27.8,0 
2004/2/1,8:00:00,23.9,0 ,38,0 ,22.1,0 ,23,0 ,7.4,0 ,29.8,0 ,28,0 
2004/2/1,8:10:00,24,0 ,38,0 ,22.2,0 ,23,0 ,7.5,0 ,29.7,0 ,28.2,0 
2004/2/1,8:20:00,24.1,0 ,38,0 ,22.2,0 ,23,0 ,7.6,0 ,29.6,0 ,28.4,0 
2004/2/1,8:30:00,24.2,0 ,38,0 ,22.2,0 ,23,0 ,7.7,0 ,29.6,0 ,28.6,0 
2004/2/1,8:40:00,24.3,0 ,38,0 ,22.2,0 ,23.1,0 ,7.8,0 ,29.7,0 ,28.7,0 
2004/2/1,8:50:00,24.2,0 ,37.8,0 ,22.3,0 ,23.1,0 ,7.9,0 ,31,0 ,27.8,0 
2004/2/1,9:00:00,24.2,0 ,37.9,0 ,22.3,0 ,23.1,0 ,8,0 ,31.4,0 ,32.1,0 
2004/2/1,9:10:00,24.2,0 ,37.7,0 ,22.3,0 ,23.1,0 ,8.1,0 ,31.9,0 ,33.2,0 
2004/2/1,9:20:00,24.5,0 ,38.2,0 ,22.3,0 ,23.2,0 ,8.2,0 ,30.1,0 ,30.8,0 
2004/2/1,9:30:00,24.6,0 ,38.5,0 ,22.4,0 ,23.2,0 ,8.5,0 ,29.6,0 ,32.1,0 
2004/2/1,9:40:00,24.8,0 ,38.4,0 ,22.4,0 ,23.3,0 ,8.6,0 ,29.5,0 ,32.8,0 
2004/2/1,9:50:00,25,0 ,38.6,0 ,22.5,0 ,23.3,0 ,8.6,0 ,29.5,0 ,32.8,0 
2004/2/1,10:00:00,25.2,0 ,38.3,0 ,22.6,0 ,23.3,0 ,8.7,0 ,29.5,0 ,33.1,0 
2004/2/1,10:10:00,25.4,0 ,38.2,0 ,22.7,0 ,23.4,0 ,8.8,0 ,29.9,0 ,38.4,0 
2004/2/1,10:20:00,25.6,0 ,38.3,0 ,22.8,0 ,23.4,0 ,8.8,0 ,30.6,0 ,43.1,0 
2004/2/1,10:30:00,25.8,0 ,38,0 ,22.9,0 ,23.4,0 ,8.9,0 ,31.2,0 ,45.8,0 
2004/2/1,10:40:00,25.9,0 ,38,0 ,23,0 ,23.5,0 ,9,0 ,31.5,0 ,46.2,0 
2004/2/1,10:50:00,25.9,0 ,37.8,0 ,23,0 ,23.5,0 ,9.1,0 ,31.7,0 ,46.5,0 
2004/2/1,11:00:00,26.1,0 ,37.6,0 ,23.1,0 ,23.6,0 ,4.1,0 ,31.8,0 ,46.3,0 
2004/2/1,11:10:00,26.3,0 ,37.4,0 ,23.2,0 ,23.6,0 ,4.3,0 ,31.6,0 ,42,0 
2004/2/1,11:20:00,26.6,0 ,37.4,0 ,23.3,0 ,23.9,0 ,4.6,0 ,31.6,0 ,43.6,0 
2004/2/1,11:30:00,26.9,0 ,37.3,0 ,23.5,0 ,24,0 ,4.6,0 ,30.2,0 ,37.4,0 
2004/2/1,11:40:00,27.1,0 ,37.1,0 ,23.7,0 ,24,0 ,4.6,0 ,29.4,0 ,38.9,0 
2004/2/1,11:50:00,27.3,0 ,36.7,0 ,23.9,0 ,24.1,0 ,4.6,0 ,29,0 ,38,0 
2004/2/1,12:00:00,27.5,0 ,36.4,0 ,24,0 ,24.1,0 ,4.7,0 ,28.6,0 ,39.6,0 
2004/2/1,12:10:00,27.7,0 ,36.8,0 ,24.2,0 ,24.2,0 ,4.7,0 ,28.1,0 ,43.1,0 
2004/2/1,12:20:00,27.8,0 ,37.5,0 ,24.3,0 ,24.2,0 ,4.8,0 ,27.6,0 ,44.3,0 
2004/2/1,12:30:00,28,0 ,37.4,0 ,24.5,0 ,24.3,0 ,4.9,0 ,26.9,0 ,42.7,0 
2004/2/1,12:40:00,28.1,0 ,37.2,0 ,24.6,0 ,24.3,0 ,5,0 ,26.5,0 ,41.9,0 
2004/2/1,12:50:00,28.1,0 ,36.6,0 ,24.8,0 ,24.3,0 ,5.2,0 ,26.2,0 ,41.4,0 
2004/2/1,13:00:00,28.1,0 ,36.2,0 ,24.9,0 ,24.3,0 ,5.3,0 ,25.9,0 ,41.3,0 
2004/2/1,13:10:00,28.2,0 ,36.4,0 ,25.1,0 ,24.4,0 ,5.5,0 ,25.9,0 ,41.9,0 
2004/2/1,13:20:00,28.3,0 ,36.7,0 ,25.2,0 ,24.4,0 ,5.6,0 ,25.8,0 ,43.7,0 
2004/2/1,13:30:00,28.3,0 ,36.9,0 ,25.4,0 ,24.5,0 ,5.7,0 ,25.8,0 ,43.1,0 
2004/2/1,13:40:00,28.4,0 ,36.9,0 ,25.5,0 ,24.5,0 ,5.9,0 ,25.8,0 ,42.9,0 
2004/2/1,13:50:00,28.5,0 ,36.9,0 ,25.6,0 ,24.6,0 ,6,0 ,25.8,0 ,43,0 
2004/2/1,14:00:00,28.5,0 ,37,0 ,25.6,0 ,24.6,0 ,6.1,0 ,25.8,0 ,43.7,0 
2004/2/1,14:10:00,28.6,0 ,37.1,0 ,25.7,0 ,24.6,0 ,6.3,0 ,25.9,0 ,43.4,0 
2004/2/1,14:20:00,28.6,0 ,37.3,0 ,25.9,0 ,24.7,0 ,6.4,0 ,25.9,0 ,43.2,0 
2004/2/1,14:30:00,28.7,0 ,37.4,0 ,26,0 ,24.7,0 ,6.5,0 ,25.9,0 ,43,0 
2004/2/1,14:40:00,28.7,0 ,37.3,0 ,26.1,0 ,24.7,0 ,6.7,0 ,25.9,0 ,42.9,0 
2004/2/1,14:50:00,28.7,0 ,37.4,0 ,26.1,0 ,24.8,0 ,6.8,0 ,25.9,0 ,42.6,0 
2004/2/1,15:00:00,28.8,0 ,37.3,0 ,26.2,0 ,24.8,0 ,7,0 ,25.9,0 ,42.3,0 
2004/2/1,15:10:00,28.8,0 ,37.3,0 ,26.2,0 ,24.8,0 ,7.1,0 ,26,0 ,42,0 
2004/2/1,15:20:00,28.8,0 ,37.2,0 ,26.2,0 ,24.8,0 ,7.2,0 ,26.2,0 ,41.6,0 
2004/2/1,15:30:00,28.8,0 ,37.2,0 ,26.2,0 ,24.8,0 ,7.4,0 ,26.2,0 ,41.6,0 
2004/2/1,15:40:00,28.7,0 ,37.4,0 ,26,0 ,24.8,0 ,7.5,0 ,26.2,0 ,41.2,0 
2004/2/1,15:50:00,28.6,0 ,37.4,0 ,25.9,0 ,24.8,0 ,7.6,0 ,26.2,0 ,41,0 
2004/2/1,16:00:00,28.5,0 ,37.2,0 ,25.8,0 ,24.7,0 ,7.8,0 ,26,0 ,41.1,0 
2004/2/1,16:10:00,28.5,0 ,37.2,0 ,25.6,0 ,24.7,0 ,7.9,0 ,26.1,0 ,40.6,0 
2004/2/1,16:20:00,28.3,0 ,37.2,0 ,25.4,0 ,24.6,0 ,10.2,0 ,26.1,0 ,40.4,0 
2004/2/1,16:30:00,28.2,0 ,37.3,0 ,25.3,0 ,24.6,0 ,7.2,0 ,26.2,0 ,40.2,0 
2004/2/1,16:40:00,28.1,0 ,37.2,0 ,25.1,0 ,24.5,0 ,7.3,0 ,26.1,0 ,40,0 
2004/2/1,16:50:00,28,0 ,37.2,0 ,25,0 ,24.5,0 ,7.4,0 ,26.2,0 ,40,0 
2004/2/1,17:00:00,27.9,0 ,37.1,0 ,24.8,0 ,24.4,0 ,7.1,0 ,26.3,0 ,40.3,0 
2004/2/1,17:10:00,27.8,0 ,37.1,0 ,24.7,0 ,24.4,0 ,6.6,0 ,26.6,0 ,41,0 
2004/2/1,17:20:00,27.7,0 ,37.2,0 ,24.6,0 ,24.3,0 ,6.7,0 ,26.8,0 ,41.5,0 
2004/2/1,17:30:00,27.6,0 ,37.1,0 ,24.5,0 ,24.2,0 ,6.8,0 ,27,0 ,41.7,0 
2004/2/1,17:40:00,27.5,0 ,37.3,0 ,24.3,0 ,24.2,0 ,6.9,0 ,27.2,0 ,41.5,0 
2004/2/1,17:50:00,27.4,0 ,36.6,0 ,24.2,0 ,24.1,0 ,6.6,0 ,27.1,0 ,40.7,0 
2004/2/1,18:00:00,27.3,0 ,36.6,0 ,24.1,0 ,24,0 ,6.8,0 ,27.1,0 ,40.1,0 
2004/2/1,18:10:00,27.2,0 ,36.3,0 ,23.9,0 ,24,0 ,6.9,0 ,27.1,0 ,39.5,0 
2004/2/1,18:20:00,27,0 ,36.2,0 ,23.8,0 ,23.9,0 ,7,0 ,27,0 ,38.9,0 
2004/2/1,18:30:00,26.9,0 ,35.8,0 ,23.7,0 ,23.8,0 ,7.1,0 ,27,0 ,38.3,0 
2004/2/1,18:40:00,26.8,0 ,35.6,0 ,23.6,0 ,23.6,0 ,7.2,0 ,27,0 ,38.6,0 
2004/2/1,18:50:00,26.7,0 ,35.8,0 ,23.5,0 ,23.5,0 ,7.3,0 ,27,0 ,38.8,0 
2004/2/1,19:00:00,26.6,0 ,36,0 ,23.4,0 ,23.4,0 ,7.4,0 ,27.1,0 ,39.1,0 
2004/2/1,19:10:00,26.6,0 ,36.2,0 ,23.3,0 ,23.3,0 ,7.5,0 ,27.1,0 ,38.9,0 
2004/2/1,19:20:00,26.5,0 ,36.2,0 ,23.2,0 ,23.2,0 ,7.6,0 ,27.1,0 ,38.9,0 
2004/2/1,19:30:00,26.4,0 ,36.4,0 ,23.1,0 ,23.1,0 ,7.7,0 ,27.1,0 ,38.8,0 
2004/2/1,19:40:00,26.4,0 ,36.5,0 ,23,0 ,23.1,0 ,7.9,0 ,27.1,0 ,38.9,0 
2004/2/1,19:50:00,26.3,0 ,36.5,0 ,22.9,0 ,23,0 ,8,0 ,27,0 ,38.8,0 
2004/2/1,20:00:00,26.3,0 ,36.8,0 ,22.9,0 ,22.9,0 ,8.1,0 ,27,0 ,38.8,0 
2004/2/1,20:10:00,26.2,0 ,36.9,0 ,22.8,0 ,22.8,0 ,8.2,0 ,27,0 ,39.3,0 
2004/2/1,20:20:00,26.2,0 ,36.9,0 ,22.7,0 ,22.7,0 ,8.3,0 ,27,0 ,39.2,0 
2004/2/1,20:30:00,26.1,0 ,36.9,0 ,22.6,0 ,22.6,0 ,8.4,0 ,27,0 ,39.1,0 
2004/2/1,20:40:00,26.1,0 ,37,0 ,22.6,0 ,22.6,0 ,8.5,0 ,27,0 ,38.8,0 
2004/2/1,20:50:00,26,0 ,37.4,0 ,22.5,0 ,22.5,0 ,8.6,0 ,26.9,0 ,38,0 
2004/2/1,21:00:00,26,0 ,37.7,0 ,22.4,0 ,22.4,0 ,8.7,0 ,26.9,0 ,38.4,0 
2004/2/1,21:10:00,25.9,0 ,37.9,0 ,22.3,0 ,22.5,0 ,8.8,0 ,27,0 ,39.8,0 
2004/2/1,21:20:00,25.9,0 ,37.8,0 ,22.2,0 ,22.5,0 ,8.9,0 ,27,0 ,40.3,0 
2004/2/1,21:30:00,25.7,0 ,37.7,0 ,22.1,0 ,22.4,0 ,9,0 ,27,0 ,40.5,0 
2004/2/1,21:40:00,25.7,0 ,37.6,0 ,22.1,0 ,22.4,0 ,9.1,0 ,27,0 ,40.7,0 
2004/2/1,21:50:00,25.5,0 ,37.5,0 ,22,0 ,22.4,0 ,9.2,0 ,26.9,0 ,40.4,0 
2004/2/1,22:00:00,25.4,0 ,37.4,0 ,21.9,0 ,22.3,0 ,9.3,0 ,26.9,0 ,40.2,0 
2004/2/1,22:10:00,25.3,0 ,37.4,0 ,21.8,0 ,22.3,0 ,9.4,0 ,26.8,0 ,40,0 
2004/2/1,22:20:00,25.2,0 ,37.4,0 ,21.8,0 ,22.3,0 ,9.5,0 ,26.7,0 ,39.2,0 
2004/2/1,22:30:00,25.1,0 ,37.2,0 ,21.7,0 ,22.6,0 ,9.6,0 ,26.7,0 ,38.9,0 
2004/2/1,22:40:00,25,0 ,37.1,0 ,21.6,0 ,22.9,0 ,9.6,0 ,26.6,0 ,43.3,0 
2004/2/1,22:50:00,24.9,0 ,37,0 ,21.6,0 ,22.7,0 ,9.7,0 ,26.5,0 ,45.5,0 
2004/2/1,23:00:00,24.8,0 ,36.9,0 ,21.5,0 ,22.6,0 ,9.3,0 ,26.5,0 ,46.7,0 
2004/2/1,23:10:00,24.7,0 ,36.8,0 ,21.4,0 ,22.5,0 ,9.6,0 ,26.4,0 ,45.8,0 
2004/2/1,23:20:00,24.6,0 ,36.8,0 ,21.4,0 ,22.4,0 ,9.6,0 ,26.3,0 ,47.2,0 
2004/2/1,23:30:00,24.5,0 ,36.7,0 ,21.4,0 ,22.4,0 ,9.6,0 ,26.3,0 ,48,0 
2004/2/1,23:40:00,24.4,0 ,36.6,0 ,21.3,0 ,22.3,0 ,9.7,0 ,26.2,0 ,48.9,0 
2004/2/1,23:50:00,24.3,0 ,36.6,0 ,21.3,0 ,22.3,0 ,9.8,0 ,26.2,0 ,48.6,0 
2004/2/2,0:00:00,24.2,0 ,36.5,0 ,21.3,0 ,22.3,0 ,9.9,0 ,26.2,0 ,47.4,0 
2004/2/2,0:10:00,24.1,0 ,36.5,0 ,21.2,0 ,22.3,0 ,10,0 ,26.1,0 ,46.6,0 
2004/2/2,0:20:00,24,0 ,36.5,0 ,21.3,0 ,22.3,0 ,10.1,0 ,26.2,0 ,45.6,0 
2004/2/2,0:30:00,24,0 ,36.6,0 ,21.2,0 ,22.3,0 ,10.2,0 ,26.3,0 ,44.4,0 
2004/2/2,0:40:00,23.9,0 ,36.7,0 ,21.3,0 ,22.2,0 ,10.3,0 ,26.3,0 ,43.3,0 
2004/2/2,0:50:00,23.8,0 ,36.6,0 ,21.3,0 ,22.3,0 ,10.4,0 ,26.5,0 ,42.2,0 
2004/2/2,1:00:00,23.7,0 ,36.7,0 ,21.3,0 ,22.3,0 ,10.4,0 ,26.6,0 ,41.2,0 
2004/2/2,1:10:00,23.6,0 ,36.7,0 ,21.3,0 ,22.3,0 ,10.5,0 ,26.8,0 ,40.1,0 
2004/2/2,1:20:00,23.6,0 ,36.8,0 ,21.3,0 ,22.2,0 ,10.6,0 ,26.8,0 ,39.3,0 
2004/2/2,1:30:00,23.6,0 ,36.8,0 ,21.3,0 ,22.2,0 ,10.7,0 ,27,0 ,38.3,0 
2004/2/2,1:40:00,23.5,0 ,36.8,0 ,21.3,0 ,22.2,0 ,10.8,0 ,27.2,0 ,37.5,0 
2004/2/2,1:50:00,23.4,0 ,36.9,0 ,21.4,0 ,22.1,0 ,10.9,0 ,27.3,0 ,36.8,0 
2004/2/2,2:00:00,23.4,0 ,36.9,0 ,21.4,0 ,22.1,0 ,11,0 ,27.5,0 ,36.1,0 
2004/2/2,2:10:00,23.3,0 ,36.9,0 ,21.4,0 ,22.1,0 ,11.1,0 ,27.6,0 ,35.5,0 
2004/2/2,2:20:00,23.3,0 ,36.9,0 ,21.4,0 ,22,0 ,11.1,0 ,27.8,0 ,35,0 
2004/2/2,2:30:00,23.2,0 ,36.9,0 ,21.4,0 ,22,0 ,11.2,0 ,28,0 ,34.3,0 
2004/2/2,2:40:00,23.2,0 ,36.9,0 ,21.4,0 ,22,0 ,11.3,0 ,28.1,0 ,34.1,0 
2004/2/2,2:50:00,23.2,0 ,36.9,0 ,21.4,0 ,22,0 ,11.4,0 ,28.3,0 ,33.4,0 
2004/2/2,3:00:00,23.2,0 ,36.9,0 ,21.4,0 ,22,0 ,11.5,0 ,28.5,0 ,32.9,0 
2004/2/2,3:10:00,23.2,0 ,36.8,0 ,21.4,0 ,22,0 ,11.5,0 ,28.7,0 ,32.3,0 
2004/2/2,3:20:00,23.2,0 ,36.8,0 ,21.4,0 ,22.1,0 ,11.6,0 ,28.9,0 ,31.8,0 
2004/2/2,3:30:00,23.1,0 ,36.8,0 ,21.4,0 ,22.1,0 ,11.7,0 ,29,0 ,31.4,0 
2004/2/2,3:40:00,23.1,0 ,36.9,0 ,21.3,0 ,22.1,0 ,11.8,0 ,29.2,0 ,30.9,0 
2004/2/2,3:50:00,23.1,0 ,36.8,0 ,21.3,0 ,22.1,0 ,11.8,0 ,29.4,0 ,30.5,0 
2004/2/2,4:00:00,23.1,0 ,36.8,0 ,21.3,0 ,22.1,0 ,11.9,0 ,29.6,0 ,30.1,0 
2004/2/2,4:10:00,23.1,0 ,36.8,0 ,21.3,0 ,22.2,0 ,12,0 ,29.7,0 ,29.8,0 
2004/2/2,4:20:00,23.1,0 ,36.8,0 ,21.3,0 ,22.2,0 ,12.1,0 ,29.9,0 ,29.3,0 
2004/2/2,4:30:00,23.1,0 ,36.9,0 ,21.3,0 ,22.2,0 ,12.1,0 ,30.1,0 ,29.1,0 
2004/2/2,4:40:00,23.1,0 ,36.8,0 ,21.3,0 ,22.3,0 ,12.2,0 ,30.3,0 ,28.7,0 
2004/2/2,4:50:00,23.1,0 ,36.7,0 ,21.3,0 ,22.3,0 ,12.3,0 ,30.5,0 ,28.3,0 
2004/2/2,5:00:00,23.1,0 ,36.7,0 ,21.3,0 ,22.3,0 ,12.3,0 ,30.7,0 ,28,0 
2004/2/2,5:10:00,23.1,0 ,36.7,0 ,21.2,0 ,22.4,0 ,12.4,0 ,30.9,0 ,27.7,0 
2004/2/2,5:20:00,23.1,0 ,36.7,0 ,21.2,0 ,22.4,0 ,12.5,0 ,31.1,0 ,27.4,0 
2004/2/2,5:30:00,23.1,0 ,36.7,0 ,21.2,0 ,22.4,0 ,12.5,0 ,31.4,0 ,27.1,0 
2004/2/2,5:40:00,23.2,0 ,36.7,0 ,21.2,0 ,22.4,0 ,12.6,0 ,31.6,0 ,26.8,0 
2004/2/2,5:50:00,23.1,0 ,36.6,0 ,21.1,0 ,22.5,0 ,12.7,0 ,31.8,0 ,26.5,0 
2004/2/2,6:00:00,23.1,0 ,36.5,0 ,21.1,0 ,22.5,0 ,12.7,0 ,31.9,0 ,26.3,0 
2004/2/2,6:10:00,23.2,0 ,36.6,0 ,21.1,0 ,22.5,0 ,12.8,0 ,32,0 ,26.4,0 
2004/2/2,6:20:00,23.2,0 ,36.6,0 ,21.1,0 ,22.5,0 ,12.9,0 ,32,0 ,26.2,0 
2004/2/2,6:30:00,23.2,0 ,36.6,0 ,21.1,0 ,22.5,0 ,11.1,0 ,32.2,0 ,25.9,0 
2004/2/2,6:40:00,23.2,0 ,36.5,0 ,21.3,0 ,22.5,0 ,11.1,0 ,31,0 ,25,0 
2004/2/2,6:50:00,23.2,0 ,35.8,0 ,21.3,0 ,22.6,0 ,11.1,0 ,30.3,0 ,24.9,0 
2004/2/2,7:00:00,23.2,0 ,35.6,0 ,21.3,0 ,22.6,0 ,11.2,0 ,29.9,0 ,25.1,0 
2004/2/2,7:10:00,23.2,0 ,35.4,0 ,21.2,0 ,22.5,0 ,11.2,0 ,30.9,0 ,28.2,0 
2004/2/2,7:20:00,23.2,0 ,36.7,0 ,21.2,0 ,22.5,0 ,7.8,0 ,30.3,0 ,27.2,0 
2004/2/2,7:30:00,23.3,0 ,37.4,0 ,21.3,0 ,23,0 ,7.8,0 ,30.2,0 ,27.8,0 
2004/2/2,7:40:00,23.3,0 ,37.3,0 ,21.3,0 ,23.3,0 ,7.9,0 ,30.1,0 ,28,0 
2004/2/2,7:50:00,23.4,0 ,37.2,0 ,21.3,0 ,23.1,0 ,8,0 ,30,0 ,27.8,0 
2004/2/2,8:00:00,23.4,0 ,37.1,0 ,21.4,0 ,22.9,0 ,8.1,0 ,30,0 ,27.7,0 
2004/2/2,8:10:00,23.4,0 ,37.2,0 ,21.4,0 ,22.8,0 ,8.2,0 ,29.8,0 ,27.7,0 
2004/2/2,8:20:00,23.5,0 ,37.2,0 ,21.4,0 ,22.8,0 ,8.3,0 ,29.7,0 ,27.9,0 
2004/2/2,8:30:00,23.5,0 ,37.2,0 ,21.4,0 ,22.7,0 ,8.4,0 ,29.6,0 ,28,0 
2004/2/2,8:40:00,23.5,0 ,37.1,0 ,21.4,0 ,22.7,0 ,8.5,0 ,29.6,0 ,28.3,0 
2004/2/2,8:50:00,23.5,0 ,37.1,0 ,21.5,0 ,22.6,0 ,8.5,0 ,29.5,0 ,28.2,0 
2004/2/2,9:00:00,23.6,0 ,37.1,0 ,21.5,0 ,22.6,0 ,8.6,0 ,29.4,0 ,28.3,0 
2004/2/2,9:10:00,23.6,0 ,37.1,0 ,21.5,0 ,22.6,0 ,8.7,0 ,29.3,0 ,28.4,0 
2004/2/2,9:20:00,23.6,0 ,37,0 ,21.5,0 ,22.6,0 ,8.3,0 ,29.3,0 ,28.5,0 
2004/2/2,9:30:00,23.6,0 ,37,0 ,21.5,0 ,22.5,0 ,8.6,0 ,29.2,0 ,28.6,0 
2004/2/2,9:40:00,23.7,0 ,36.9,0 ,21.6,0 ,22.5,0 ,8.7,0 ,29.2,0 ,28.7,0 
2004/2/2,9:50:00,23.7,0 ,36.8,0 ,21.6,0 ,22.5,0 ,8.7,0 ,29.1,0 ,28.8,0 
2004/2/2,10:00:00,23.7,0 ,36.8,0 ,21.6,0 ,22.5,0 ,8.8,0 ,29.1,0 ,28.7,0 
2004/2/2,10:10:00,23.8,0 ,36.7,0 ,21.7,0 ,22.5,0 ,8.9,0 ,29.1,0 ,28.7,0 
2004/2/2,10:20:00,23.8,0 ,36.7,0 ,21.7,0 ,22.5,0 ,8.9,0 ,29,0 ,28.8,0 
2004/2/2,10:30:00,23.8,0 ,36.7,0 ,21.7,0 ,22.5,0 ,9,0 ,29,0 ,28.7,0 
2004/2/2,10:40:00,23.8,0 ,36.6,0 ,21.7,0 ,22.5,0 ,9.1,0 ,28.9,0 ,28.8,0 
2004/2/2,10:50:00,23.8,0 ,36.7,0 ,21.8,0 ,22.5,0 ,9.2,0 ,28.9,0 ,29,0 
2004/2/2,11:00:00,23.9,0 ,36.6,0 ,21.8,0 ,22.5,0 ,9.2,0 ,28.8,0 ,28.9,0 
2004/2/2,11:10:00,23.9,0 ,36.5,0 ,21.8,0 ,22.5,0 ,9.3,0 ,28.8,0 ,28.9,0 
2004/2/2,11:20:00,24,0 ,36.5,0 ,21.9,0 ,22.5,0 ,9.4,0 ,28.7,0 ,29.2,0 
2004/2/2,11:30:00,24,0 ,36.4,0 ,21.9,0 ,22.5,0 ,9.5,0 ,28.7,0 ,29.1,0 
2004/2/2,11:40:00,24,0 ,36.4,0 ,21.9,0 ,22.5,0 ,9.6,0 ,28.7,0 ,29.1,0 
2004/2/2,11:50:00,24,0 ,36.4,0 ,21.9,0 ,22.5,0 ,9.6,0 ,28.6,0 ,29.3,0 
2004/2/2,12:00:00,24,0 ,36.4,0 ,22,0 ,22.5,0 ,9.7,0 ,28.6,0 ,29.4,0 
2004/2/2,12:10:00,24.1,0 ,36.4,0 ,22,0 ,22.6,0 ,9.8,0 ,28.5,0 ,29.5,0 
2004/2/2,12:20:00,24.1,0 ,36.4,0 ,22,0 ,22.6,0 ,9.9,0 ,28.5,0 ,29.7,0 
2004/2/2,12:30:00,24.1,0 ,36.4,0 ,22.1,0 ,22.6,0 ,9.9,0 ,28.5,0 ,29.6,0 
2004/2/2,12:40:00,24.2,0 ,36.7,0 ,22.1,0 ,22.6,0 ,10.1,0 ,28.4,0 ,29.8,0 
2004/2/2,12:50:00,24.2,0 ,37,0 ,22.1,0 ,22.6,0 ,10.1,0 ,28.4,0 ,30.7,0 
2004/2/2,13:00:00,24.2,0 ,36.9,0 ,22.2,0 ,22.6,0 ,10.2,0 ,28.4,0 ,31,0 
2004/2/2,13:10:00,24.3,0 ,36.7,0 ,22.2,0 ,22.6,0 ,10.3,0 ,28.3,0 ,30.9,0 
2004/2/2,13:20:00,24.3,0 ,36.7,0 ,22.2,0 ,22.9,0 ,10.4,0 ,28.3,0 ,31,0 
2004/2/2,13:30:00,24.3,0 ,36.7,0 ,22.2,0 ,23.4,0 ,10.5,0 ,28.3,0 ,31.2,0 
2004/2/2,13:40:00,24.3,0 ,36.7,0 ,22.2,0 ,23.2,0 ,10.6,0 ,28.2,0 ,31.2,0 
2004/2/2,13:50:00,24.3,0 ,36.6,0 ,22.3,0 ,23.1,0 ,10.7,0 ,28.2,0 ,31.2,0 
2004/2/2,14:00:00,24.3,0 ,36.5,0 ,22.3,0 ,23,0 ,10.8,0 ,28.1,0 ,31.2,0 
2004/2/2,14:10:00,24.3,0 ,36.5,0 ,22.3,0 ,22.9,0 ,10.9,0 ,28.1,0 ,31,0 
2004/2/2,14:20:00,24.3,0 ,36.4,0 ,22.3,0 ,22.9,0 ,11,0 ,28,0 ,31,0 
2004/2/2,14:30:00,24.3,0 ,36.3,0 ,22.3,0 ,22.9,0 ,11.1,0 ,27.9,0 ,31.1,0 
2004/2/2,14:40:00,24.2,0 ,36.2,0 ,22.3,0 ,22.8,0 ,11.2,0 ,27.9,0 ,31.1,0 
2004/2/2,14:50:00,24.2,0 ,36.1,0 ,22.3,0 ,22.8,0 ,11.3,0 ,27.8,0 ,31,0 
2004/2/2,15:00:00,24.2,0 ,36.1,0 ,22.2,0 ,22.8,0 ,11.4,0 ,27.7,0 ,31,0 
2004/2/2,15:10:00,24.2,0 ,36.1,0 ,22.2,0 ,22.7,0 ,11.4,0 ,27.6,0 ,31.1,0 
2004/2/2,15:20:00,24.1,0 ,36,0 ,22.2,0 ,22.7,0 ,11.5,0 ,27.5,0 ,31,0 
2004/2/2,15:30:00,24.1,0 ,36,0 ,22.2,0 ,22.7,0 ,11.6,0 ,27.5,0 ,31.2,0 
2004/2/2,15:40:00,24.1,0 ,36,0 ,22.2,0 ,22.7,0 ,11.7,0 ,27.4,0 ,31.4,0 
2004/2/2,15:50:00,24.1,0 ,36.1,0 ,22.1,0 ,22.7,0 ,11.8,0 ,27.4,0 ,31.6,0 
2004/2/2,16:00:00,24.1,0 ,36.3,0 ,22.1,0 ,22.6,0 ,11.9,0 ,27.3,0 ,31.7,0 
2004/2/2,16:10:00,24,0 ,36.4,0 ,22.1,0 ,22.6,0 ,12,0 ,27.3,0 ,32.2,0 
2004/2/2,16:20:00,24,0 ,36.5,0 ,22.1,0 ,22.6,0 ,12,0 ,27.2,0 ,32,0 
2004/2/2,16:30:00,24,0 ,36.6,0 ,22,0 ,22.6,0 ,12.1,0 ,27.2,0 ,32.3,0 
2004/2/2,16:40:00,24,0 ,36.7,0 ,22,0 ,22.6,0 ,12.2,0 ,27.2,0 ,32.3,0 
2004/2/2,16:50:00,23.9,0 ,36.6,0 ,22,0 ,22.5,0 ,12.3,0 ,27,0 ,31.4,0 
2004/2/2,17:00:00,23.9,0 ,36.4,0 ,21.9,0 ,22.5,0 ,9.9,0 ,26.8,0 ,32,0 
2004/2/2,17:10:00,23.8,0 ,36.5,0 ,21.9,0 ,22.4,0 ,10.2,0 ,26.8,0 ,32,0 
2004/2/2,17:20:00,23.8,0 ,36.4,0 ,21.8,0 ,22.4,0 ,10.3,0 ,26.8,0 ,32.3,0 
2004/2/2,17:30:00,23.8,0 ,36.5,0 ,21.8,0 ,22.4,0 ,10.3,0 ,26.7,0 ,32.3,0 
2004/2/2,17:40:00,23.8,0 ,36.7,0 ,21.8,0 ,22.3,0 ,10.4,0 ,26.7,0 ,32.5,0 
2004/2/2,17:50:00,23.8,0 ,36.7,0 ,21.7,0 ,22.3,0 ,10.4,0 ,26.7,0 ,32.6,0 
2004/2/2,18:00:00,23.8,0 ,36.7,0 ,21.7,0 ,22.3,0 ,10.5,0 ,26.6,0 ,32.1,0 
2004/2/2,18:10:00,23.7,0 ,36.4,0 ,21.7,0 ,22.2,0 ,10.6,0 ,26.4,0 ,31.5,0 
2004/2/2,18:20:00,23.8,0 ,36.7,0 ,21.6,0 ,22.2,0 ,10.7,0 ,26.3,0 ,31.6,0 
2004/2/2,18:30:00,23.8,0 ,37.2,0 ,21.5,0 ,22.1,0 ,10.8,0 ,26.3,0 ,32.7,0 
2004/2/2,18:40:00,23.7,0 ,37.4,0 ,21.5,0 ,22.1,0 ,10.9,0 ,26.3,0 ,33.3,0 
2004/2/2,18:50:00,23.7,0 ,37.3,0 ,21.4,0 ,22,0 ,11,0 ,26.3,0 ,33.1,0 
2004/2/2,19:00:00,23.6,0 ,37.2,0 ,21.4,0 ,22,0 ,11.1,0 ,26.3,0 ,33.3,0 
2004/2/2,19:10:00,23.6,0 ,37.2,0 ,21.3,0 ,22,0 ,11.2,0 ,26.2,0 ,33.1,0 
2004/2/2,19:20:00,23.6,0 ,37.2,0 ,21.3,0 ,21.9,0 ,11.3,0 ,26.1,0 ,33.1,0 
2004/2/2,19:30:00,23.5,0 ,37.2,0 ,21.2,0 ,21.9,0 ,9,0 ,26.1,0 ,40,0 
2004/2/2,19:40:00,23.5,0 ,37.2,0 ,21.1,0 ,21.9,0 ,9.1,0 ,26.4,0 ,34,0 
2004/2/2,19:50:00,23.4,0 ,37.1,0 ,21.1,0 ,21.9,0 ,9.1,0 ,26.5,0 ,33.6,0 
2004/2/2,20:00:00,23.4,0 ,37.2,0 ,21,0 ,21.8,0 ,9.2,0 ,26.6,0 ,33.5,0 
2004/2/2,20:10:00,23.4,0 ,37.1,0 ,21,0 ,21.8,0 ,9.3,0 ,26.7,0 ,33.8,0 
2004/2/2,20:20:00,23.3,0 ,37.5,0 ,20.9,0 ,21.7,0 ,9.3,0 ,26.7,0 ,33.2,0 
2004/2/2,20:30:00,23.3,0 ,37.8,0 ,20.9,0 ,21.7,0 ,9.4,0 ,26.8,0 ,33.1,0 
2004/2/2,20:40:00,23.3,0 ,37.8,0 ,20.8,0 ,21.7,0 ,9.5,0 ,26.9,0 ,32.9,0 
2004/2/2,20:50:00,23.3,0 ,37.7,0 ,20.8,0 ,21.6,0 ,9.6,0 ,27.9,0 ,49.4,0 
2004/2/2,21:00:00,23.3,0 ,37.9,0 ,20.7,0 ,21.6,0 ,7.8,0 ,26.9,0 ,34.2,0 
2004/2/2,21:10:00,23.2,0 ,38.1,0 ,20.7,0 ,21.6,0 ,7.9,0 ,26.4,0 ,36.3,0 
2004/2/2,21:20:00,23.2,0 ,38,0 ,20.6,0 ,21.5,0 ,8,0 ,26.2,0 ,35.2,0 
2004/2/2,21:30:00,23.2,0 ,38,0 ,20.6,0 ,21.5,0 ,8.1,0 ,26.3,0 ,34.5,0 
2004/2/2,21:40:00,23.2,0 ,38,0 ,20.5,0 ,21.4,0 ,8.2,0 ,26.6,0 ,44.5,0 
2004/2/2,21:50:00,23.1,0 ,38.1,0 ,20.5,0 ,21.4,0 ,8.3,0 ,26.6,0 ,37.1,0 
2004/2/2,22:00:00,23.1,0 ,38.2,0 ,20.4,0 ,21.3,0 ,8.3,0 ,26.6,0 ,35.8,0 
2004/2/2,22:10:00,23,0 ,38.1,0 ,20.4,0 ,21.5,0 ,8.4,0 ,26.4,0 ,35.3,0 
2004/2/2,22:20:00,23,0 ,37.9,0 ,20.3,0 ,21.5,0 ,8.5,0 ,26.5,0 ,35.2,0 
2004/2/2,22:30:00,22.9,0 ,37.8,0 ,20.3,0 ,21.5,0 ,8.6,0 ,26.5,0 ,34.8,0 
2004/2/2,22:40:00,22.9,0 ,37.8,0 ,20.3,0 ,21.5,0 ,8.7,0 ,27.5,0 ,71.2,0 
2004/2/2,22:50:00,22.9,0 ,39,0 ,20.2,0 ,21.5,0 ,8.7,0 ,26.4,0 ,49.5,0 
2004/2/2,23:00:00,23,0 ,39.8,0 ,20.2,0 ,21.5,0 ,8.8,0 ,26,0 ,41.8,0 
2004/2/2,23:10:00,23,0 ,39.9,0 ,20.2,0 ,22.5,0 ,8.9,0 ,25.8,0 ,38,0 
2004/2/2,23:20:00,22.9,0 ,39.8,0 ,20.1,0 ,22.6,0 ,9,0 ,25.6,0 ,37.2,0 
2004/2/2,23:30:00,22.9,0 ,39.8,0 ,20.1,0 ,22.3,0 ,9.1,0 ,25.5,0 ,36.9,0 
2004/2/2,23:40:00,22.9,0 ,39.8,0 ,20.1,0 ,22.1,0 ,9.2,0 ,25.4,0 ,36.7,0 
2004/2/2,23:50:00,22.9,0 ,40,0 ,20.1,0 ,22,0 ,9.3,0 ,25.3,0 ,36.6,0 
2004/2/3,0:00:00,22.8,0 ,40,0 ,20,0 ,21.9,0 ,9.3,0 ,25.3,0 ,36.8,0 
2004/2/3,0:10:00,22.8,0 ,40,0 ,20,0 ,21.8,0 ,9.4,0 ,25.3,0 ,37.1,0 
2004/2/3,0:20:00,22.8,0 ,39.8,0 ,20.1,0 ,21.7,0 ,9.5,0 ,25.7,0 ,41,0 
2004/2/3,0:30:00,22.7,0 ,39.7,0 ,20.2,0 ,21.6,0 ,9.6,0 ,25.9,0 ,41.3,0 
2004/2/3,0:40:00,22.7,0 ,39.5,0 ,20.2,0 ,21.5,0 ,9.7,0 ,26.1,0 ,40.8,0 
2004/2/3,0:50:00,22.7,0 ,39.4,0 ,20.3,0 ,21.6,0 ,9.7,0 ,26.3,0 ,40.1,0 
2004/2/3,1:00:00,22.6,0 ,39.3,0 ,20.3,0 ,21.5,0 ,9.8,0 ,26.5,0 ,39.5,0 
2004/2/3,1:10:00,22.6,0 ,39.2,0 ,20.4,0 ,21.5,0 ,9.9,0 ,26.7,0 ,39,0 
2004/2/3,1:20:00,22.5,0 ,39.1,0 ,20.5,0 ,21.5,0 ,10,0 ,26.9,0 ,38.4,0 
2004/2/3,1:30:00,22.5,0 ,39.1,0 ,20.5,0 ,21.4,0 ,10.1,0 ,27.1,0 ,37.8,0 
2004/2/3,1:40:00,22.5,0 ,39.1,0 ,20.6,0 ,21.4,0 ,10.2,0 ,27.2,0 ,37.3,0 
2004/2/3,1:50:00,22.5,0 ,39,0 ,20.7,0 ,21.4,0 ,10.3,0 ,27.4,0 ,36.8,0 
2004/2/3,2:00:00,22.4,0 ,39,0 ,20.7,0 ,21.4,0 ,10.4,0 ,27.6,0 ,36.3,0 
2004/2/3,2:10:00,22.4,0 ,39,0 ,20.8,0 ,21.4,0 ,10.5,0 ,27.8,0 ,35.9,0 
2004/2/3,2:20:00,22.4,0 ,39.1,0 ,20.9,0 ,21.4,0 ,10.6,0 ,28,0 ,35.3,0 
2004/2/3,2:30:00,22.4,0 ,39,0 ,20.9,0 ,21.5,0 ,10.6,0 ,28.2,0 ,34.8,0 
2004/2/3,2:40:00,22.4,0 ,39,0 ,21,0 ,21.5,0 ,10.7,0 ,28.4,0 ,34.3,0 
2004/2/3,2:50:00,22.4,0 ,39,0 ,21.1,0 ,21.5,0 ,10.8,0 ,28.6,0 ,33.9,0 
2004/2/3,3:00:00,22.4,0 ,39,0 ,21.1,0 ,21.6,0 ,10.9,0 ,28.8,0 ,33.3,0 
2004/2/3,3:10:00,22.5,0 ,38.9,0 ,21.2,0 ,21.6,0 ,11,0 ,29,0 ,32.9,0 
2004/2/3,3:20:00,22.5,0 ,38.9,0 ,21.2,0 ,21.6,0 ,11.1,0 ,29.2,0 ,32.5,0 
2004/2/3,3:30:00,22.5,0 ,39,0 ,21.3,0 ,21.7,0 ,11.2,0 ,29.4,0 ,32,0 
2004/2/3,3:40:00,22.5,0 ,39,0 ,21.3,0 ,21.8,0 ,11.3,0 ,29.6,0 ,31.6,0 
2004/2/3,3:50:00,22.6,0 ,39,0 ,21.4,0 ,21.8,0 ,11.3,0 ,29.8,0 ,31.1,0 
2004/2/3,4:00:00,22.6,0 ,39,0 ,21.5,0 ,21.9,0 ,11.4,0 ,30.1,0 ,30.7,0 
2004/2/3,4:10:00,22.7,0 ,39,0 ,21.5,0 ,21.9,0 ,11.5,0 ,30.3,0 ,30.4,0 
2004/2/3,4:20:00,22.7,0 ,39,0 ,21.6,0 ,22,0 ,11.6,0 ,30.5,0 ,30,0 
2004/2/3,4:30:00,22.7,0 ,39,0 ,21.6,0 ,22.1,0 ,11.7,0 ,30.7,0 ,29.8,0 
2004/2/3,4:40:00,22.8,0 ,39,0 ,21.7,0 ,22.1,0 ,11.7,0 ,31,0 ,29.4,0 
2004/2/3,4:50:00,22.8,0 ,39,0 ,21.8,0 ,22.2,0 ,11.8,0 ,31.2,0 ,29.1,0 
2004/2/3,5:00:00,22.9,0 ,39,0 ,21.8,0 ,22.3,0 ,11.9,0 ,31.4,0 ,28.8,0 
2004/2/3,5:10:00,22.9,0 ,38.9,0 ,21.9,0 ,22.3,0 ,12,0 ,31.7,0 ,28.5,0 
2004/2/3,5:20:00,23,0 ,38.9,0 ,21.9,0 ,22.4,0 ,12.1,0 ,31.9,0 ,28.2,0 
2004/2/3,5:30:00,23,0 ,38.9,0 ,22,0 ,22.5,0 ,12.1,0 ,32.1,0 ,27.9,0 
2004/2/3,5:40:00,23.1,0 ,38.9,0 ,22,0 ,22.5,0 ,12.2,0 ,32.3,0 ,27.7,0 
2004/2/3,5:50:00,23.2,0 ,38.9,0 ,22.1,0 ,22.6,0 ,12.3,0 ,32.5,0 ,27.4,0 
2004/2/3,6:00:00,23.2,0 ,38.9,0 ,22.1,0 ,22.6,0 ,12.4,0 ,32.6,0 ,27.3,0 
2004/2/3,6:10:00,23.2,0 ,38.8,0 ,22.2,0 ,22.7,0 ,12.4,0 ,32.7,0 ,27.2,0 
2004/2/3,6:20:00,23.2,0 ,38.9,0 ,22.2,0 ,22.7,0 ,12.5,0 ,32.8,0 ,27.1,0 
2004/2/3,6:30:00,23.3,0 ,38.9,0 ,22.2,0 ,22.8,0 ,12.6,0 ,32.8,0 ,26.9,0 
2004/2/3,6:40:00,23.3,0 ,38.9,0 ,22.3,0 ,22.8,0 ,12.6,0 ,32.8,0 ,27,0 